GRUS-1B

operational
NORAD ID: 47934 Int'l Des: 2021-022 Owner: AXEL Country: J
LEOCIRCULARRETROGRADESSO

About GRUS-1B

Description loading...

Live Position

Loading 3D Globe...

Upcoming Passes

Altitude History

Altitude vs Time

uPlot chart will show altitude changes over time

Two-Line Element Set

1 47934U 21022C 26062.63024862 .00002485 00000-0 21111-3 0 9999
2 47934 97.5545 309.2200 0014964 322.5980 37.4201 14.98696814270083
Epoch: Mar 3, 2026 • Age: 38 hours

Current Status

Altitude 585.0 km
Velocity 7.56 km/s
Sub-Earth Point -27.03°S, 106.72°E
Launch Date Mar 22, 2021
Age 4.9 years
Type other

Technical Details

Classification Payload
Mass 80.00 kg
Dry Mass 80.00 kg
Total Mass 80.00 kg
Length 0.50 m
Diameter 0.50 m
Span 0.50 m
Shape Box
Manufacturer AXEL
Bus Type GRUS
Phase Status In Orbit
Owner/State AXEL/J

Large Constellations

Loading constellations...